[[[{"header":{"parameterUnit":"kt","parameterCategory":2,"dx":1,"dy":1,"la1":30.253999710083008,"la2":30.299108505249023,"lo1":-89.0895004272461,"lo2":-89.04439544677734,"nx":28,"ny":28,"refTime":"2022-09-27T21:00:00:Z","depth":0,"parameterNumber":1,"parameterNumberName":"U-component_of_WINDS"},"data":[-5.721,-5.7283,-5.7262,-5.7336,-5.7329,-5.7376,-5.7386,-5.7396,-5.7399,-5.7452,-5.7479,-5.7465,-5.7459,-5.7486,-5.7514,-5.7507,-5.7521,-5.7562,-5.7547,-5.7381,-5.7356,-5.7333,-5.7315,-5.7565,-5.7565,-5.7723,-5.7724,-5.7726,-5.7089,-5.7083,-5.7116,-5.7134,-5.7161,-5.7108,-5.7118,-5.7145,-5.7188,-5.7192,-5.7217,-5.7262,-5.7295,-5.7275,-5.7303,-5.7336,-5.7314,-5.7346,-5.7344,-5.7344,-5.7165,-5.7146,-5.7364,-5.7364,-5.7364,-5.7363,-5.7363,-5.7363,-5.6864,-5.6909,-5.6907,-5.6942,-5.6945,-5.6957,-5.6996,-5.6977,-5.7009,-5.7036,-5.7003,-5.7052,-5.7052,-5.7075,-5.7077,-5.7114,-5.7075,-5.7103,-5.7111,-5.7119,-5.7132,-5.6909,-5.7117,-5.7117,-5.7116,-5.7116,-5.7115,0,-5.6693,-5.6673,-5.6702,-5.6726,-5.6751,-5.6767,-5.6778,-5.6802,-5.6749,-5.6778,-5.6817,-5.6836,-5.6874,-5.6908,-5.6929,-5.6926,-5.6875,-5.6867,-5.6887,-5.6904,-5.6917,-5.6913,-5.6623,-5.6861,-5.6859,-5.6857,-5.6856,-5.6855,-5.6467,-5.6521,-5.6508,-5.6532,-5.6533,-5.6572,-5.6591,-5.6541,-5.6564,-5.657,-5.6612,-5.6645,-5.667,-5.6737,-5.6714,-5.6743,-5.6718,-5.6812,-5.6722,-5.6736,-5.6722,-5.672,-5.6725,-5.6831,-5.6834,-5.6837,-5.6839,0,-5.6341,-5.6305,-5.6383,-5.6365,-5.6362,-5.6422,-5.6406,-5.6448,-5.6425,-5.6481,-5.6491,-5.6455,-5.6495,-5.6457,-5.6494,-5.6474,-5.6572,-5.6547,-5.6572,-5.6565,-5.6646,-5.664,-5.6913,-5.6946,-5.6685,-5.6687,-5.6689,0,-5.6134,-5.6208,-5.6151,-5.6198,-5.6277,-5.6225,-5.6305,-5.6293,-5.6292,-5.6335,-5.627,-5.6312,-5.6257,-5.6293,-5.6262,-5.6336,-5.6342,-5.6331,-5.6323,-5.6339,-5.634,-5.6351,-5.634,-5.6299,-5.6298,-5.6297,-5.6295,0,-5.5943,-5.5998,-5.6074,-5.608,-5.6069,-5.6105,-5.6102,-5.61,-5.6119,-5.6138,-5.615,-5.6175,-5.619,-5.621,-5.6171,-5.6112,-5.6259,-5.617,-5.6248,-5.625,-5.6285,-5.6284,-5.6533,-5.6294,-5.6293,-5.6293,-5.6292,0,-5.5772,-5.5791,-5.5906,-5.5894,-5.5911,-5.5961,-5.5982,-5.6016,-5.6018,-5.6002,-5.6016,-5.5969,-5.6029,-5.5943,-5.6025,-5.5959,-5.5977,-5.5972,-5.5977,-5.5982,-5.5887,-5.6035,-5.6274,-5.6299,-5.5984,-5.5981,-5.5979,0,-5.5563,-5.5669,-5.5625,-5.5735,-5.5779,-5.5703,-5.5757,-5.5761,-5.5743,-5.5778,-5.5758,-5.5798,-5.5726,-5.5733,-5.5779,-5.5761,-5.5846,-5.5748,-5.58,-5.5802,-5.5803,-5.6023,-5.6069,-5.6226,-5.5945,-5.5949,-5.5951,0,-5.5398,-5.5382,-5.5405,-5.5411,-5.5408,-5.5444,-5.5506,-5.5534,-5.5559,-5.557,-5.5622,-5.5676,-5.5624,-5.5637,-5.5601,-5.5651,-5.5787,-5.5589,-5.5588,-5.5627,-5.5925,-5.5968,-5.5995,-5.5752,-5.5756,-5.5759,-5.5925,0,-5.5149,-5.5197,-5.5256,-5.5271,-5.5293,-5.5359,-5.5319,-5.5347,-5.531,-5.529,-5.5364,-5.5358,-5.5387,-5.5406,-5.5371,-5.5495,-5.5469,-5.5413,-5.5329,-5.5472,-5.5526,-5.5548,-5.5252,-5.5249,-5.5247,-5.5245,0,0,-5.4959,-5.5027,-5.4977,-5.5035,-5.505,-5.4971,-5.5046,-5.5051,-5.5065,-5.5078,-5.5029,-5.5106,-5.5104,-5.5198,-5.5239,-5.5251,-5.527,-5.5221,-5.5404,-5.5422,-5.5438,-5.5496,-5.552,-5.5241,-5.524,-5.5239,-5.5238,0,-5.486,-5.4858,-5.4932,-5.4936,-5.4939,-5.4914,-5.4932,-5.4922,-5.4912,-5.4984,-5.4918,-5.4958,-5.5021,-5.5027,-5.5038,-5.5208,-5.5157,-5.522,-5.5325,-5.5382,-5.5403,-5.5421,-5.5483,-5.5506,-5.5233,-5.5233,-5.5233,0,-5.4691,-5.4683,-5.4714,-5.4745,-5.4746,-5.4793,-5.4694,-5.4747,-5.4782,-5.4693,-5.4766,-5.4757,-5.4761,-5.4855,-5.4896,-5.4854,-5.5057,-5.4985,-5.4999,-5.5003,-5.5056,-5.5081,-5.5104,-5.4808,-5.4807,-5.4805,0,0,-5.4611,-5.4655,-5.4631,-5.472,-5.4726,-5.469,-5.4711,-5.4676,-5.4682,-5.4685,-5.4673,-5.468,-5.4716,-5.4741,-5.4772,-5.4881,-5.4879,-5.4935,-5.4955,-5.4971,-5.4985,-5.5042,-5.5067,-5.48,-5.48,-5.48,0,0,-5.4573,-5.4549,-5.451,-5.4609,-5.4616,-5.4599,-5.4655,-5.4608,-5.4632,-5.462,-5.4565,-5.4564,-5.4651,-5.4646,-5.4584,-5.4742,-5.4658,-5.4672,-5.4743,-5.4767,-5.4787,-5.4787,-5.4482,0,0,0,0,0,-5.4451,-5.4551,-5.4517,-5.4527,-5.4566,-5.4618,-5.4622,-5.4579,-5.452,-5.4566,-5.4548,-5.4492,-5.4601,-5.4545,-5.4556,-5.4626,-5.4736,-5.4748,-5.4758,-5.4874,-5.4901,-5.4923,0,0,0,0,0,0,-5.4455,-5.4468,-5.4514,-5.4502,-5.451,-5.4614,-5.4506,-5.4496,-5.4514,-5.4503,-5.4497,-5.4491,-5.4455,-5.4536,-5.4547,-5.4614,-5.4478,-5.4741,-5.4751,-5.4759,-5.4883,-5.4905,-5.4923,0,0,0,0,0,-5.4458,-5.4468,-5.4542,-5.45,-5.4507,-5.4473,-5.4501,-5.4493,-5.4506,-5.4479,-5.4472,-5.4472,-5.4459,-5.4465,-5.4542,-5.4611,-5.447,-5.4475,-5.4747,-5.4755,-5.4762,-5.4894,0,0,0,0,0,0,-5.446,-5.4461,-5.4542,-5.4543,-5.4459,-5.4466,-5.4465,-5.449,-5.448,-5.4475,-5.4451,-5.4442,-5.4462,-5.4466,-5.4471,-5.4612,-5.4464,-5.4468,-5.4471,-5.4753,-5.4759,-5.4764,0,0,0,0,0,0,-5.4455,-5.4462,-5.4543,-5.4493,-5.4488,-5.446,-5.446,-5.4519,-5.4481,-5.4452,-5.4444,-5.4447,-5.4454,-5.4468,-5.4471,-5.4566,-5.4459,-5.4463,-5.4466,-5.4468,-5.4758,-5.4762,0,0,0,0,0,0,-5.4457,-5.4463,-5.4493,-5.4489,-5.4484,-5.4487,-5.4511,-5.4554,-5.4439,-5.4454,-5.4428,-5.4422,-5.4458,-5.446,-5.4472,-5.4565,-5.4566,-5.4459,-5.4462,-5.4464,-5.4465,0,0,0,0,0,0,0,-5.4459,-5.4429,-5.4539,-5.4485,-5.448,-5.4548,-5.4548,-5.4548,-5.4438,-5.4433,-5.4429,-5.4425,-5.4435,-5.444,-5.4445,-5.4565,0,0,-5.4459,-5.4461,0,0,0,0,0,0,0,0,-5.4425,-5.4428,-5.4539,-5.4539,-5.4539,-5.4548,-5.4548,-5.4548,-5.4437,-5.4434,-5.443,-5.4426,-5.4437,-5.444,-5.4444,0,0,0,0,0,0,0,0,0,0,0,0,0,0,0,-5.4539,-5.4539,0,-5.4548,-5.4548,-5.4548,-5.4437,-5.4434,-5.4431,-5.4428,-5.4438,-5.4441,-5.4444,0,0,0,0,0,0,0,0,0,0,0,0,0,0,0,0,0,0,0,0,0,0,0,0,0,0,0,0,0,0,0,0,0,0,0,0,0,0,0,0,0,0,0,0,0,0,0,0,0,0,0,0,0,0,0,0,0,0,0,0,0,0,0,0,0,0,0,0,0]}],[{"header":{"parameterUnit":"kt","parameterCategory":2,"dx":1,"dy":1,"la1":30.253999710083008,"la2":30.299108505249023,"lo1":-89.0895004272461,"lo2":-89.04439544677734,"nx":28,"ny":28,"refTime":"2022-09-27T21:00:00:Z","depth":0,"parameterNumber":2,"parameterNumberName":"V-component_of_WINDS"},"data":[-13.4729,-13.4809,-13.479,-13.4872,-13.4868,-13.492,-13.4932,-13.4946,-13.4951,-13.5011,-13.5041,-13.5028,-13.5024,-13.5055,-13.5086,-13.5079,-13.5094,-13.5138,-13.5122,-13.4946,-13.492,-13.4895,-13.4875,-13.5141,-13.5142,-13.5308,-13.531,-13.5311,-13.4606,-13.4604,-13.4641,-13.4664,-13.4695,-13.4642,-13.4655,-13.4685,-13.4732,-13.4739,-13.4767,-13.4816,-13.4852,-13.4832,-13.4863,-13.4899,-13.4875,-13.4909,-13.4906,-13.4907,-13.4717,-13.4696,-13.4929,-13.4929,-13.4929,-13.4928,-13.4928,-13.4928,-13.4377,-13.4425,-13.4427,-13.4466,-13.4472,-13.4487,-13.4528,-13.4511,-13.4546,-13.4576,-13.4543,-13.4595,-13.4597,-13.4622,-13.4624,-13.4664,-13.4622,-13.4652,-13.466,-13.4669,-13.4682,-13.4447,-13.4668,-13.4667,-13.4667,-13.4666,-13.4665,0,-13.4203,-13.4183,-13.4216,-13.4244,-13.4271,-13.429,-13.4303,-13.4328,-13.4276,-13.4306,-13.4349,-13.4369,-13.4409,-13.4446,-13.4469,-13.4464,-13.441,-13.4401,-13.4422,-13.4439,-13.4454,-13.4448,-13.4141,-13.4394,-13.4392,-13.439,-13.4389,-13.4388,-13.3971,-13.4028,-13.4018,-13.4044,-13.4046,-13.4088,-13.4109,-13.4057,-13.4081,-13.4089,-13.4133,-13.4169,-13.4195,-13.4264,-13.424,-13.427,-13.4243,-13.4343,-13.4247,-13.4262,-13.4246,-13.4244,-13.425,-13.4362,-13.4366,-13.4368,-13.437,0,-13.3843,-13.3807,-13.3889,-13.3872,-13.3869,-13.3932,-13.3916,-13.3961,-13.3937,-13.3995,-13.4005,-13.3968,-13.4009,-13.3969,-13.4006,-13.3984,-13.4087,-13.406,-13.4087,-13.408,-13.4166,-13.4159,-13.4448,-13.4484,-13.4207,-13.421,-13.4212,0,-13.3631,-13.3707,-13.365,-13.3699,-13.3782,-13.3727,-13.3811,-13.3798,-13.3797,-13.3842,-13.3773,-13.3816,-13.3756,-13.3794,-13.3761,-13.3837,-13.3844,-13.3831,-13.3822,-13.3838,-13.384,-13.3849,-13.3837,-13.3795,-13.3794,-13.3793,-13.3791,0,-13.3434,-13.3491,-13.357,-13.3577,-13.3565,-13.3603,-13.3599,-13.3596,-13.3616,-13.3634,-13.3646,-13.3672,-13.3686,-13.3706,-13.3663,-13.36,-13.3755,-13.3659,-13.3742,-13.3744,-13.3778,-13.3777,-13.4044,-13.379,-13.3789,-13.3789,-13.3788,0,-13.3257,-13.3277,-13.3396,-13.3384,-13.3401,-13.3452,-13.3473,-13.3507,-13.3509,-13.3491,-13.3504,-13.3452,-13.3514,-13.3423,-13.3508,-13.3438,-13.3456,-13.3449,-13.3454,-13.3457,-13.3355,-13.3513,-13.377,-13.3796,-13.3461,-13.3458,-13.3456,0,-13.3043,-13.3152,-13.3105,-13.3218,-13.3262,-13.3182,-13.3237,-13.324,-13.322,-13.3254,-13.3232,-13.3271,-13.3193,-13.3199,-13.3247,-13.3225,-13.3316,-13.3211,-13.3262,-13.3265,-13.3266,-13.3502,-13.3551,-13.3719,-13.342,-13.3424,-13.3427,0,-13.2871,-13.2854,-13.2877,-13.2883,-13.2876,-13.2912,-13.2976,-13.3002,-13.3027,-13.3036,-13.3088,-13.3141,-13.3085,-13.3095,-13.3055,-13.3106,-13.3253,-13.3039,-13.3038,-13.308,-13.3398,-13.3445,-13.3473,-13.3214,-13.3218,-13.3222,-13.3398,0,-13.2614,-13.2662,-13.2723,-13.2735,-13.2756,-13.2823,-13.2777,-13.2805,-13.2764,-13.274,-13.2815,-13.2804,-13.2829,-13.2848,-13.2808,-13.2939,-13.291,-13.2849,-13.2756,-13.2911,-13.2969,-13.2992,-13.2675,-13.2672,-13.267,-13.2667,0,0,-13.2419,-13.2486,-13.243,-13.2488,-13.2502,-13.2415,-13.2491,-13.2494,-13.2502,-13.2514,-13.2462,-13.2534,-13.2527,-13.2622,-13.2667,-13.2676,-13.2696,-13.2642,-13.2838,-13.2857,-13.2874,-13.2936,-13.2961,-13.2663,-13.2662,-13.2661,-13.266,0,-13.2315,-13.2309,-13.2385,-13.2385,-13.2384,-13.2354,-13.2373,-13.2355,-13.2343,-13.2415,-13.2341,-13.238,-13.2437,-13.244,-13.2449,-13.263,-13.2571,-13.2641,-13.2755,-13.2814,-13.2836,-13.2856,-13.2922,-13.2946,-13.2654,-13.2654,-13.2655,0,-13.2138,-13.2126,-13.2156,-13.2182,-13.218,-13.2226,-13.2118,-13.217,-13.2204,-13.2103,-13.2175,-13.2162,-13.216,-13.2255,-13.2296,-13.2249,-13.2461,-13.2385,-13.2399,-13.2403,-13.2458,-13.2485,-13.2509,-13.219,-13.2189,-13.2187,0,0,-13.2055,-13.2098,-13.2066,-13.2156,-13.216,-13.2116,-13.2135,-13.2095,-13.2095,-13.2095,-13.2077,-13.2079,-13.2112,-13.2135,-13.2163,-13.2274,-13.2269,-13.233,-13.2351,-13.237,-13.2383,-13.2442,-13.2469,-13.2182,-13.2182,-13.2182,0,0,-13.2014,-13.1981,-13.1939,-13.2037,-13.2041,-13.2014,-13.2071,-13.2019,-13.2039,-13.2025,-13.1959,-13.1957,-13.2044,-13.2034,-13.1968,-13.2129,-13.2038,-13.2052,-13.2133,-13.2159,-13.2181,-13.2182,-13.1854,0,0,0,0,0,-13.1883,-13.1985,-13.1947,-13.1957,-13.1987,-13.2036,-13.2039,-13.1987,-13.1924,-13.1971,-13.1947,-13.1882,-13.1985,-13.1925,-13.1935,-13.2009,-13.2113,-13.2125,-13.2137,-13.2266,-13.2295,-13.2319,0,0,0,0,0,0,-13.1886,-13.1898,-13.1944,-13.1923,-13.1929,-13.2031,-13.1914,-13.1902,-13.1918,-13.1905,-13.1889,-13.1881,-13.1837,-13.1916,-13.1926,-13.1997,-13.185,-13.2118,-13.2128,-13.2138,-13.2276,-13.2299,-13.2319,0,0,0,0,0,-13.1888,-13.1898,-13.196,-13.1921,-13.1927,-13.1882,-13.1909,-13.1899,-13.191,-13.1872,-13.1862,-13.1869,-13.1841,-13.1845,-13.1922,-13.1994,-13.1843,-13.1847,-13.2125,-13.2133,-13.214,-13.2287,0,0,0,0,0,0,-13.189,-13.1888,-13.196,-13.1959,-13.1878,-13.1875,-13.1873,-13.1896,-13.1875,-13.1867,-13.1848,-13.1838,-13.1844,-13.1847,-13.1851,-13.1996,-13.1837,-13.1841,-13.1844,-13.2131,-13.2137,-13.2143,0,0,0,0,0,0,-13.1883,-13.1889,-13.1959,-13.1908,-13.1901,-13.187,-13.1868,-13.1924,-13.1876,-13.1852,-13.1843,-13.1844,-13.1838,-13.1849,-13.1852,-13.1943,-13.1833,-13.1836,-13.1839,-13.1841,-13.2136,-13.2141,0,0,0,0,0,0,-13.1884,-13.1889,-13.1907,-13.1903,-13.1896,-13.1889,-13.1918,-13.1952,-13.1832,-13.1854,-13.182,-13.1814,-13.1842,-13.1843,-13.1853,-13.1943,-13.1943,-13.1833,-13.1835,-13.1837,-13.1838,0,0,0,0,0,0,0,-13.1886,-13.1865,-13.1962,-13.1898,-13.1892,-13.1957,-13.1956,-13.1956,-13.1831,-13.1826,-13.1821,-13.1817,-13.1811,-13.1815,-13.1819,-13.1943,0,0,-13.1832,-13.1834,0,0,0,0,0,0,0,0,-13.1861,-13.1864,-13.1962,-13.1962,-13.1962,-13.1957,-13.1956,-13.1956,-13.183,-13.1826,-13.1822,-13.1819,-13.1812,-13.1815,-13.1819,0,0,0,0,0,0,0,0,0,0,0,0,0,0,0,-13.1962,-13.1962,0,-13.1957,-13.1956,-13.1956,-13.183,-13.1827,-13.1823,-13.182,-13.1813,-13.1816,-13.1819,0,0,0,0,0,0,0,0,0,0,0,0,0,0,0,0,0,0,0,0,0,0,0,0,0,0,0,0,0,0,0,0,0,0,0,0,0,0,0,0,0,0,0,0,0,0,0,0,0,0,0,0,0,0,0,0,0,0,0,0,0,0,0,0,0,0,0,0,0]}]]]